www.pogodaiklimat.ru

Погода и климат >> Архив погоды >> Китай >> Хэйлунцзян >> Аньда


ПОГОДА в Аньда

  • Прогноз погоды в Аньда
  • Монитор погоды в Аньда

АРХИВ ПОГОДЫ в Аньда

Время (UTC), дата Ветер
(напр.,м/с)
 
Видим.   Явления Облачность Т
(С)
Тd
(С)
f
(%)
Тe
(С)
Тes
(С)
Комфортность P
(гПа)
Po
(гПа)
Тmin
(С)
Tmax
(С)
R
(мм)
R24
(мм)
S
(см)
09 12.07 З 3 30 км 4/4 600 м
[]
+25.9 +18.1 62 +30 +32 душно 1000.6 983.6
12 12.07 В 1 26 км в посл. час дождь 6/6 600 м
[]
+22.1 +19.8 87 +28 +28 душно 1001.1 983.9 2
18 12.07 С 1 16 км ?/? +18.9 +18.2 96 +22 +22 комфорт 1001.5 984.1 +29.3
21 12.07 С 1 20 км н/о +19.0 +18.2 95 +22 +22 комфорт 1002.4 985.0
00 13.07 В 3 23 км 3/3 1500 м
[]
+24.2 +19.5 75 +29 +35 душно 1002.7 985.6
03 13.07 В 4 30 км 4/4 600 м
[]
+27.0 +18.6 60 +32 +39 очень
душно
1002.5 985.5
06 13.07 В 4 30 км 9/9 600 м
[]
+27.9 +17.4 53 +32 +33 душно 1000.7 983.8 +18.2
09 13.07 В 2 30 км 9/9 600 м
[]
+27.1 +16.7 53 +31 +31 душно 1000.4 983.5
18 13.07 В 1 30 км ?/? +19.5 +17.3 87 +23 +23 комфорт 1002.1 984.7 +28.5
21 13.07 СВ 2 18 км н/о +19.1 +17.6 91 +21 +21 комфорт 1003.0 985.6
00 14.07 В 4 30 км 6/6 1500 м
[]
+24.6 +18.5 69 +29 +32 душно 1003.2 986.1
03 14.07 В 4 30 км 6/6 600 м
[]
+26.9 +17.7 57 +31 +36 душно 1003.2 986.2
06 14.07 СВ 3 30 км 6/6 600 м
[]
+28.4 +17.3 51 +32 +37 душно 1001.9 985.0 +18.7
09 14.07 В 4 30 км 6/6 600 м
[]
+26.7 +17.2 56 +31 +31 душно 1002.2 985.2
12 14.07 В 2 30 км 5/5 600 м
[]
+22.6 +18.6 78 +28 +28 душно 1003.6 986.4
18 14.07 С 1 30 км ?/? +19.1 +18.3 95 +22 +22 комфорт 1004.5 987.0 +28.7
21 14.07 СВ 1 23 км в посл. час дождь н/о +19.4 +18.4 94 +23 +23 комфорт 1005.3 987.8
00 15.07 В 3 30 км 3/3 600 м
[]
+24.2 +18.8 72 +29 +34 душно 1005.8 988.6
03 15.07 В 1 30 км 6/6 600 м
[]
+27.3 +18.6 59 +32 +41 очень
душно
1005.7 988.7
06 15.07 С 3 30 км 8/8 600 м
[]
+27.2 +18.5 59 +32 +34 очень
душно
1005.1 988.1 +18.9
09 15.07 В 1 30 км 5/5 600 м
[]
+27.5 +18.8 59 +33 +34 очень
душно
1004.9 987.9
12 15.07 ЮВ 1 30 км 5/5 600 м
[]
+23.8 +20.1 80 +29 +29 душно 1005.3 988.1
18 15.07 ЮВ 1 12 км ?/? +21.7 +20.5 93 +27 +27 душно 1006.0 988.8 +28.6
21 15.07 Ю 1 13 км н/о +21.2 +20.0 93 +26 +26 душно 1005.9 988.5
00 16.07 Ю 3 30 км 8/8 1500 м
[]
+26.2 +20.8 72 +33 +34 очень
душно
1006.1 989.0
03 16.07 ЮЗ 4 30 км 9/9 600 м
[]
+29.2 +20.9 61 +36 +38 очень
душно
1005.5 988.6
06 16.07 Ю 5 16 км {дождь} 9/9 600 м
[]
+29.1 +21.1 62 +37 +37 очень
душно
1004.1 987.2 +20.4 0.2
09 16.07 Ю 2 30 км 10/10 600 м
[]
+28.1 +21.2 66 +35 +35 очень
душно
1004.1 987.2
12 16.07 С 1 9000 м слаб. дождь 10/10 600 м
[]
+25.2 +21.3 79 +32 +32 очень
душно
1004.2 987.1 0.6
18 16.07 ЮЗ 1 13 км ?/? +20.6 +20.3 98 +26 +26 душно 1004.4 987.2 +30.1 34
21 16.07 СВ 1 16 км н/о +21.0 +20.5 97 +27 +27 душно 1004.9 987.5
00 17.07 З 2 30 км 4/4 600 м
[]
+23.1 +18.6 76 +29 +34 очень
душно
1006.0 988.7 34
03 17.07 З 2 30 км 6/6 600 м
[]
+25.5 +19.6 70 +31 +38 очень
душно
1006.0 988.9
06 17.07 СЗ 2 30 км 8/8 600 м
[]
+27.2 +18.5 59 +32 +35 очень
душно
1004.9 987.9 +20.5
09 17.07 ЮЗ 3 30 км 4/4 600 м
[]
+28.4 +18.5 55 +33 +35 очень
душно
1004.1 987.2
12 17.07 З 1 30 км 6/6 600 м
[]
+24.7 +20.0 75 +30 +30 очень
душно
1005.3 988.1
18 17.07 Ю 2 3300 м дымка ?/? +21.6 +21.4 99 +28 +28 очень
душно
1005.1 987.8 +29.0
21 17.07 Ю 1 200 м туман ?/? +21.0 +20.8 99 +27 +27 душно 1004.8 987.4
00 18.07 Ю 3 12 км 8/8 600 м
[]
+24.1 +22.4 90 +31 +33 очень
душно
1005.2 988.0
03 18.07 Ю 4 28 км 6/6 600 м
[]
+28.7 +22.2 68 +37 +42 очень
душно
1004.2 987.3
06 18.07 ЮЗ 4 30 км 9/9 600 м
[]
+29.5 +20.6 59 +37 +37 очень
душно
1003.2 986.4 +20.9
09 18.07 Ю 3 27 км {дождь} 8/8 600 м
[]
+20.8 +19.6 93 +26 +26 душно 1004.5 987.1
12 18.07 Ю 2 30 км {дождь} 4/4 1500 м
[]
+20.7 +19.0 90 +26 +26 душно 1004.4 987.0 51
18 18.07 В 1 17 км ?/? +18.2 +17.9 98 +20 +20 1004.7 987.2 +30.6
21 18.07 В 2 13 км н/о +18.6 +18.4 99 +20 +20 1005.4 987.9
00 19.07 ЮВ 2 10 км 9/9 1500 м
[]
+24.7 +22.8 89 +33 +33 очень
душно
1005.2 988.0
03 19.07 ЮВ 4 7000 м 9/9 1500 м
[]
+27.6 +23.6 79 +38 +39 очень
душно
1004.9 987.9
06 19.07 ЮВ 3 17 км 9/9 1500 м
[]
+30.1 +25.0 74 +43 +44 опасность
перегрева
1004.0 987.2 +17.9

 

Местоположение метеостанции Аньда (Хэйлунцзян, Китай): широта 46.38 долгота 125.31 высота над уровнем моря 150 м.

В архиве по умолчанию представлена погода в Аньда за последнюю неделю. Архивные данные за месяц целиком и за предыдущие месяцы, начиная с января 2011 года, Вы можете получить, выбрав интересующий диапазон дат из раскрывающегося списка и нажав кнопку "Ввод!".


*Определитесь, кто Вы:
робот инопланетянин человек

Внимание! Время в таблицах - всемирное. Для получения местного времени необходимо прибавить поправку, которая равна 8 ч.

Смотрите также архив погоды в соседних городах и на ближайших метеорологических станциях:

Погода в Харбине (Хэйлунцзян, Китай) (132 км)
Погода в Тайлае (Хэйлунцзян, Китай) (146 км)
Погода в Цянь Горлос (Гирин, Китай) (149 км)
Погода в Цицикаре (Хэйлунцзян, Китай) (154 км)
Погода в Хайлуне (Хэйлунцзян, Китай) (171 км)
Погода в Кэшане (Хэйлунцзян, Китай) (191 км)
Погода в Шанчжи (Хэйлунцзян, Китай) (243 км)
Погода в Чанлине (Гирин, Китай) (259 км)
Погода в Тунхэ (Хэйлунцзян, Китай) (267 км)
Погода в Чанчуне (Гирин, Китай) (276 км)

Пояснения к столбцам:

Ветер - указаны скорость ветра в м/с - средняя за 10 мин, порывы в срок и между сроками (в фигурных скобках) и направление, откуда дует ветер: С - северный, СВ - северо-восточный, В - восточный, ЮВ - юго-восточный, Ю - южный, ЮЗ - юго-западный, З - западный, СЗ - северо-западный.
Видимость - горизонтальная дальность видимости в метрах или километрах. При видимости от 1 до 10 км при отсутствии осадков обычно наблюдается дымка, при ухудшении видимости до 1 км и менее - туман. В сухую погоду видимость может ухудшаться дымом, пылью или мглою.
Явления - указаны атмосферные явления, наблюдавшиеся в срок или в последний час перед сроком; фигурными скобками обозначены явления, наблюдавшиеся между сроками (за 1-3 часа до срока); квадратными скобками обозначены град или гололедные отложения с указанием их диаметра в мм.
Облачность - указаны через наклонную черту общая и нижняя облачность в баллах и высота нижней границы облаков в метрах; квадратными скобками обозначены формы облаков: Ci - перистые, Cs - перисто-слоистые, Cc - перисто-кучевые, Ac - высококучевые, As - высокослоистые, Sc - слоисто-кучевые, Ns - слоисто-дождевые, Cu - кучевые, Cb - кучево-дождевые. Подробнее классификацию облаков см. в Атласе облаков (PDF).
T - Температура воздуха - температура, измеренная на высоте 2 м над землей.
Td - Температура точки росы - температура, при понижении до которой содержащийся в воздухе водяной пар достигнет насыщения.
f - Относительная влажность воздуха - влажноcть воздуха, измеренная на высоте 2 м над землей.
Te - Эффективная температура - температура, которую ощущает одетый по сезону человек в тени. Характеристика душности погоды. При расчете учитывается влияние влажности воздуха и скорости ветра на теплоощущения человека.
Tes - Эффективная температура на солнце - температура, которую ощущает человек, с поправкой на солнечный нагрев. Характеристика знойности погоды. Зависит от высоты солнца над горизонтом, облачности и скорости ветра. Ночью, в пасмурную погоду, а также при ветре 12 м/с и более поправка равна нулю.
P - Атмосферное давление - приведенное к уровню моря атмосферное давление.
Po - Атмосферное давление - измеренное на уровне метеостанции атмосферное давление.
Tmin - Минимальная температура - минимум температуры воздуха на высоте 2 м над землей.
Tmax - Максимальная температура - максимум температуры воздуха на высоте 2 м над землей.
R - Количество осадков - Количество выпавших осадков за период времени, мм. При наведении курсора мыши на число - период времени, за который выпало указанное количество осадков.
R24 - Количество осадков - Количество выпавших осадков за 24 часа, мм.
S - Снежный покров - Высота снежного покрова, см. При наведении курсора мыши на число - состояние снежного покрова и степень покрытия местности в баллах.